Weather History for La Junta, CO

Change the Weather History Date:

Monday, October 21, 2013

  Actual Average Record
Temperature  
Mean Temperature 47 °F 52 °F  
Max Temperature 61 °F 68 °F 90 °F (2003)
Min Temperature 33 °F 37 °F 25 °F (1987)
Degree Days  
Heating Degree Days 18 13  
Month to date heating degree days 214 199  
Since 1 July heating degree days 226 272  
Cooling Degree Days 0 0  
Month to date cooling degree days 8 7  
Year to date cooling degree days 1663 1223  
Moisture  
Dew Point 33 °F    
Average Humidity 64    
Maximum Humidity 100    
Minimum Humidity 27    
Precipitation  
Precipitation T in 0.04 in 0.60 in (1979)
Month to date precipitation 0.26 0.64  
Year to date precipitation 4.98 10.55  
Sea Level Pressure  
Sea Level Pressure 30.12 in    
Wind  
Wind Speed 8 mph (West)    
Max Wind Speed 15 mph    
Max Gust Speed 20 mph    
Visibility 10 miles    
Events Rain    
T = Trace of Precipitation, MM = Missing Value Source: NWS Daily Summary

Daily Weather History Graph

Daily Weather History Graph

Search for Another Location

Airport:

Trip Planner

Search our weather history database for the weather conditions in past years. The results will help you decide how hot, cold, wet, or windy it might be!

Date:

Astronomy

Oct. 21, 2013 Rise Set
Actual Time 7:08 AM MDT 6:07 PM MDT
Civil Twilight 6:42 AM MDT 6:34 PM MDT
Nautical Twilight 6:11 AM MDT 7:05 PM MDT
Astronomical Twilight 5:40 AM MDT 7:35 PM MDT
Moon 8:04 PM MDT (10/21) 9:43 AM MDT (10/21)
Length of Visible Light 11h 52m
Length of Day
10h 58m
Waning Gibbous, 92% of the Moon is Illuminated
Oct 21
Waning Gibbous
Oct 26
Last Quarter
Nov 3
New
Nov 9
First Quarter
Nov 17
Full

Hourly Weather History & Observations

Time (MDT) Temp. Windchill Dew Point Humidity Pressure Visibility Wind Dir Wind Speed Gust Speed Precip Events Conditions
12:53 AM 43.0 °F 38.2 °F 39.0 °F 86% 30.09 in 10.0 mi West 8.1 mph - 0.01 in Rain Light Rain
1:53 AM 42.1 °F 37.1 °F 39.0 °F 89% 30.10 in 10.0 mi West 8.1 mph - 0.00 in   Overcast
2:53 AM 41.0 °F 36.4 °F 39.0 °F 93% 30.11 in 10.0 mi West 6.9 mph - N/A   Mostly Cloudy
3:53 AM 39.0 °F 32.3 °F 37.0 °F 93% 30.11 in 10.0 mi West 10.4 mph - N/A   Clear
4:53 AM 37.0 °F 30.4 °F 35.1 °F 93% 30.13 in 10.0 mi West 9.2 mph - N/A   Clear
5:53 AM 36.0 °F 29.0 °F 34.0 °F 93% 30.16 in 10.0 mi West 9.2 mph - N/A   Clear
6:53 AM 33.1 °F 26.9 °F 33.1 °F 100% 30.17 in 9.0 mi NW 6.9 mph - N/A   Clear
7:53 AM 36.0 °F 33.3 °F 35.1 °F 97% 30.17 in 10.0 mi WSW 3.5 mph - N/A   Clear
8:53 AM 41.0 °F 38.0 °F 37.9 °F 89% 30.18 in 10.0 mi West 4.6 mph - N/A   Clear
9:53 AM 45.0 °F 41.2 °F 39.0 °F 80% 30.19 in 10.0 mi WNW 6.9 mph - N/A   Clear
10:53 AM 50.0 °F - 39.9 °F 68% 30.17 in 10.0 mi West 8.1 mph - N/A   Clear
11:53 AM 54.0 °F - 37.0 °F 53% 30.15 in 10.0 mi West 9.2 mph - N/A   Clear
12:53 PM 57.0 °F - 33.1 °F 40% 30.10 in 10.0 mi WSW 10.4 mph - N/A   Clear
1:53 PM 59.0 °F - 28.9 °F 32% 30.07 in 10.0 mi WSW 9.2 mph - N/A   Clear
2:53 PM 59.0 °F - 28.0 °F 31% 30.07 in 10.0 mi West 6.9 mph - N/A   Clear
3:53 PM 60.1 °F - 27.0 °F 28% 30.06 in 10.0 mi NNW 6.9 mph - N/A   Clear
4:53 PM 60.1 °F - 27.0 °F 28% 30.06 in 10.0 mi Calm Calm - N/A   Clear
5:53 PM 57.9 °F - 28.0 °F 32% 30.07 in 10.0 mi SW 4.6 mph - N/A   Clear
6:53 PM 52.0 °F - 30.0 °F 43% 30.10 in 10.0 mi SW 4.6 mph - N/A   Clear
7:53 PM 50.0 °F - 28.9 °F 44% 30.11 in 10.0 mi SSW 5.8 mph - N/A   Clear
8:53 PM 48.0 °F - 28.9 °F 48% 30.11 in 10.0 mi SW 8.1 mph - N/A   Clear
9:53 PM 46.9 °F - 28.0 °F 48% 30.11 in 10.0 mi SW 9.2 mph - N/A   Clear
10:53 PM 39.9 °F 35.1 °F 28.9 °F 65% 30.13 in 10.0 mi WSW 6.9 mph - N/A   Clear
11:53 PM 43.0 °F 36.4 °F 28.0 °F 56% 30.12 in 10.0 mi West 12.7 mph - N/A   Clear